Change the Weather History Date:

Friday, October 5, 2012

  Actual Average Record
Temperature  
Mean Temperature 32 °F 42 °F  
Max Temperature 55 °F 59 °F 78 °F (1921)
Min Temperature 8 °F 25 °F 8 °F (2012)
Degree Days  
Heating Degree Days 33 23  
Month to date heating degree days 125 110  
Since 1 July heating degree days 873 1151  
Cooling Degree Days 0 0  
Month to date cooling degree days 0 0  
Year to date cooling degree days 3 3  
Moisture  
Dew Point 5 °F    
Average Humidity 45    
Maximum Humidity 80    
Minimum Humidity 10    
Precipitation  
Precipitation 0.00 in 0.03 in 1.39 in (2011)
Month to date precipitation 0.00 0.12  
Year to date precipitation 15.64 12.33  
Sea Level Pressure  
Sea Level Pressure 30.20 in    
Wind  
Wind Speed 2 mph (WSW)    
Max Wind Speed 12 mph    
Max Gust Speed 17 mph    
T = Trace of Precipitation, MM = Missing Value Source: NWS Daily Summary

Daily Weather History Graph

Daily Weather History Graph

Search for Another Location

Airport or City:

Trip Planner

Search our weather history database for the weather conditions in past years. The results will help you decide how hot, cold, wet, or windy it might be!

Date:

Astronomy

Oct. 05, 2012 Rise Set
Actual Time 7:42 AM MDT 7:12 PM MDT
Civil Twilight 7:14 AM MDT 7:41 PM MDT
Nautical Twilight 6:40 AM MDT 8:14 PM MDT
Astronomical Twilight 6:06 AM MDT 8:48 PM MDT
Moon 10:29 PM MDT (10/5) 1:04 PM MDT (10/5)
Length of Visible Light 12h 27m
Length of Day
11h 29m
Waning Gibbous, 73% of the Moon is Illuminated
Oct 5
Waning Gibbous
Oct 8
Last Quarter
Oct 15
New
Oct 21
First Quarter
Oct 29
Full

Hourly Weather History & Observations

Time (MDT) Temp. Windchill Dew Point Humidity Pressure Visibility Wind Dir Wind Speed Gust Speed Precip Events Conditions
12:51 AM 23.0 °F - 8.1 °F 53% 30.14 in - Calm Calm - N/A   Unknown
1:51 AM 17.1 °F 11.7 °F 6.1 °F 62% 30.17 in - SSE 3.5 mph - N/A   Unknown
2:51 AM 18.0 °F 12.7 °F 6.1 °F 60% 30.17 in - South 3.5 mph - N/A   Unknown
3:51 AM 17.1 °F - 6.1 °F 62% 30.17 in - Calm Calm - N/A   Unknown
4:51 AM 12.9 °F - 5.0 °F 71% 30.19 in - Calm Calm - N/A   Unknown
5:51 AM 12.0 °F - 5.0 °F 73% 30.21 in - Calm Calm - N/A   Unknown
6:51 AM 10.9 °F - 5.0 °F 77% 30.26 in - Calm Calm - N/A   Unknown
7:51 AM 9.0 °F - 3.9 °F 80% 30.31 in - Calm Calm - N/A   Unknown
8:51 AM 16.0 °F - 8.1 °F 71% 30.30 in - Calm Calm - N/A   Unknown
9:51 AM 26.1 °F - 9.0 °F 49% 30.27 in - Calm Calm - N/A   Unknown
10:51 AM 32.0 °F - 10.9 °F 42% 30.26 in - Calm Calm - N/A   Unknown
11:51 AM 39.9 °F 36.7 °F 12.0 °F 32% 30.22 in - North 4.6 mph - N/A   Unknown
12:51 PM 46.0 °F - 8.1 °F 21% 30.17 in - Calm Calm - N/A   Unknown
1:51 PM 52.0 °F - 5.0 °F 15% 30.15 in - NNE 8.1 mph - N/A   Unknown
2:51 PM 53.1 °F - 3.0 °F 13% 30.12 in - Variable 4.6 mph - N/A   Unknown
3:51 PM 54.0 °F - -2.9 °F 10% 30.11 in - NNE 9.2 mph - N/A   Unknown
4:51 PM 52.0 °F - 3.0 °F 14% 30.13 in - West 6.9 mph - N/A   Unknown
5:51 PM 51.1 °F - 3.9 °F 15% 30.14 in - West 4.6 mph - N/A   Unknown
6:51 PM 43.0 °F - 3.9 °F 20% 30.19 in - Calm Calm - N/A   Unknown
7:51 PM 33.1 °F 28.7 °F 3.0 °F 28% 30.26 in - SSW 4.6 mph - N/A   Unknown
8:51 PM 28.9 °F - 3.0 °F 33% 30.26 in - Calm Calm - N/A   Unknown
9:51 PM 27.0 °F - 1.9 °F 34% 30.23 in - Calm Calm - N/A   Unknown
10:51 PM 23.0 °F - 1.9 °F 40% 30.24 in - Calm Calm - N/A   Unknown
11:51 PM 19.0 °F - 1.9 °F 47% 30.24 in - Calm Calm - N/A   Unknown